Weather History for West Plains, MO

Change the Weather History Date:

Saturday, January 19, 2013

  Actual Average Record
Temperature  
Mean Temperature 48 °F 34 °F  
Max Temperature 64 °F 45 °F 73 °F (1952)
Min Temperature 32 °F 23 °F -7 °F (1984)
Degree Days  
Heating Degree Days 17 31  
Month to date heating degree days 568 589  
Since 1 July heating degree days 2236 2334  
Cooling Degree Days 0 0  
Month to date cooling degree days 0 0  
Year to date cooling degree days 0 0  
Moisture  
Dew Point 28 °F    
Average Humidity 47    
Maximum Humidity 64    
Minimum Humidity 30    
Precipitation  
Precipitation 0.00 in 0.09 in 0.53 in (1988)
Month to date precipitation 1.92 1.30  
Year to date precipitation 1.92 1.30  
Sea Level Pressure  
Sea Level Pressure 30.15 in    
Wind  
Wind Speed 8 mph (SW)    
Max Wind Speed 18 mph    
Max Gust Speed 25 mph    
Visibility 10 miles    
Events      
T = Trace of Precipitation, MM = Missing Value Source: NWS Daily Summary

Daily Weather History Graph

Daily Weather History Graph

Search for Another Location

Airport:

Trip Planner

Search our weather history database for the weather conditions in past years. The results will help you decide how hot, cold, wet, or windy it might be!

Date:

Astronomy

Jan. 19, 2013 Rise Set
Actual Time 7:18 AM CST 5:19 PM CST
Civil Twilight 6:49 AM CST 5:47 PM CST
Nautical Twilight 6:18 AM CST 6:19 PM CST
Astronomical Twilight 5:47 AM CST 6:49 PM CST
Moon 11:44 AM CST (1/19) 12:54 AM CST (1/19)
Length of Visible Light 10h 57m
Length of Day
10h 01m
First Quarter, 57% of the Moon is Illuminated
Jan 19
First Quarter
Jan 26
Full
Feb 3
Last Quarter
Feb 10
New
Feb 17
First Quarter

Hourly Weather History & Observations

Time (CST) Temp. Windchill Dew Point Humidity Pressure Visibility Wind Dir Wind Speed Gust Speed Precip Events Conditions
12:53 AM 37.0 °F 31.0 °F 26.1 °F 65% 30.23 in 10.0 mi SSW 8.1 mph - N/A   Clear
1:53 AM 36.0 °F 32.1 °F 25.0 °F 64% 30.23 in 10.0 mi SSW 4.6 mph - N/A   Clear
2:53 AM 36.0 °F 32.1 °F 25.0 °F 64% 30.22 in 10.0 mi SSW 4.6 mph - N/A   Clear
3:53 AM 34.0 °F 31.0 °F 23.0 °F 64% 30.20 in 10.0 mi SSW 3.5 mph - N/A   Clear
4:53 AM 35.1 °F 29.3 °F 24.1 °F 64% 30.19 in 10.0 mi South 6.9 mph - N/A   Clear
5:53 AM 37.0 °F 31.6 °F 23.0 °F 57% 30.19 in 10.0 mi SSW 6.9 mph - N/A   Clear
6:53 AM 36.0 °F 31.1 °F 23.0 °F 59% 30.19 in 10.0 mi South 5.8 mph - N/A   Clear
7:53 AM 37.0 °F 31.6 °F 24.1 °F 59% 30.19 in 10.0 mi SSW 6.9 mph - N/A   Clear
8:53 AM 41.0 °F 35.8 °F 25.0 °F 53% 30.19 in 10.0 mi SSW 8.1 mph - N/A   Clear
9:53 AM 46.9 °F - 27.0 °F 46% 30.18 in 10.0 mi SSW 9.2 mph - N/A   Clear
10:53 AM 52.0 °F - 28.9 °F 41% 30.16 in 10.0 mi SW 12.7 mph 24.2 mph N/A   Clear
11:53 AM 55.0 °F - 30.0 °F 38% 30.13 in 10.0 mi WSW 13.8 mph 21.9 mph N/A   Clear
12:53 PM 59.0 °F - 32.0 °F 36% 30.09 in 10.0 mi SW 13.8 mph 19.6 mph N/A   Clear
1:53 PM 63.0 °F - 32.0 °F 31% 30.06 in 10.0 mi SW 10.4 mph 20.7 mph N/A   Clear
2:53 PM 64.0 °F - 32.0 °F 30% 30.05 in 10.0 mi WSW 13.8 mph 21.9 mph N/A   Clear
3:53 PM 63.0 °F - 30.0 °F 29% 30.05 in 10.0 mi WSW 13.8 mph 23.0 mph N/A   Clear
4:53 PM 61.0 °F - 30.0 °F 31% 30.06 in 10.0 mi SW 10.4 mph 18.4 mph N/A   Clear
5:53 PM 55.0 °F - 28.9 °F 37% 30.08 in 10.0 mi WSW 6.9 mph - N/A   Clear
6:53 PM 51.1 °F - 28.9 °F 43% 30.11 in 10.0 mi WSW 5.8 mph - N/A   Clear
7:53 PM 46.9 °F - 30.0 °F 52% 30.14 in 10.0 mi WSW 5.8 mph - N/A   Clear
8:53 PM 46.0 °F 42.5 °F 30.0 °F 54% 30.16 in 10.0 mi West 6.9 mph - N/A   Clear
9:53 PM 45.0 °F 41.2 °F 30.9 °F 58% 30.16 in 10.0 mi West 6.9 mph - N/A   Clear
10:53 PM 42.1 °F 38.4 °F 30.9 °F 65% 30.17 in 10.0 mi West 5.8 mph - N/A   Clear
11:53 PM 46.0 °F 41.4 °F 33.1 °F 61% 30.17 in 10.0 mi WNW 9.2 mph - N/A   Clear